Time,TemperatureF,DewpointF,PressureIn,WindDirection,WindDirectionDegrees,WindSpeedMPH,WindSpeedGustMPH,Humidity,HourlyPrecipIn,Conditions,Clouds,dailyrainin,SoftwareType,DateUTC
2013-05-05 00:01:00,44.2,43.5,29.87,South,183,0.0,20.0,97,0.00,,,0.00,meteohub,2013-05-05 04:01:00,
2013-05-05 00:06:00,44.2,43.5,29.87,SSE,159,0.0,20.0,97,0.00,,,0.00,meteohub,2013-05-05 04:06:00,
2013-05-05 00:11:00,44.4,43.7,29.87,South,180,0.0,19.0,97,0.00,,,0.00,meteohub,2013-05-05 04:11:00,
2013-05-05 00:16:00,44.4,43.7,29.86,SSE,166,0.0,19.0,97,0.00,,,0.00,meteohub,2013-05-05 04:16:00,
2013-05-05 00:21:00,44.6,43.9,29.86,South,175,0.0,13.0,97,0.00,,,0.00,meteohub,2013-05-05 04:21:00,
2013-05-05 00:26:00,44.8,44.1,29.86,SSE,160,1.0,14.0,97,0.00,,,0.00,meteohub,2013-05-05 04:26:00,
2013-05-05 00:31:00,44.8,44.1,29.87,South,181,0.0,22.0,97,0.00,,,0.00,meteohub,2013-05-05 04:31:00,
2013-05-05 00:36:00,44.8,44.1,29.88,SSE,168,0.0,22.0,97,0.00,,,0.00,meteohub,2013-05-05 04:36:00,
2013-05-05 00:41:00,44.6,43.9,29.88,South,184,0.0,25.0,97,0.00,,,0.00,meteohub,2013-05-05 04:41:00,
2013-05-05 00:46:00,44.6,43.9,29.86,SSE,154,0.0,25.0,97,0.00,,,0.00,meteohub,2013-05-05 04:46:00,
2013-05-05 00:51:00,44.6,43.9,29.86,SSW,192,0.0,17.0,97,0.00,,,0.00,meteohub,2013-05-05 04:51:00,
2013-05-05 00:56:00,44.8,44.1,29.86,SSW,192,0.0,13.0,97,0.00,,,0.00,meteohub,2013-05-05 04:56:00,
2013-05-05 01:01:00,44.6,43.9,29.86,South,186,0.0,13.0,97,0.00,,,0.00,meteohub,2013-05-05 05:01:00,
2013-05-05 01:06:00,44.8,44.1,29.86,South,179,0.0,13.0,97,0.00,,,0.00,meteohub,2013-05-05 05:06:00,
2013-05-05 01:11:00,44.8,44.1,29.85,South,178,0.0,16.0,97,0.00,,,0.00,meteohub,2013-05-05 05:11:00,
2013-05-05 01:16:00,45.0,44.2,29.85,South,181,1.0,16.0,97,0.00,,,0.00,meteohub,2013-05-05 05:16:00,
2013-05-05 01:21:00,45.0,44.2,29.85,South,181,1.0,16.0,97,0.00,,,0.00,meteohub,2013-05-05 05:21:00,
2013-05-05 01:26:00,45.0,44.2,29.85,South,183,0.0,16.0,97,0.00,,,0.00,meteohub,2013-05-05 05:26:00,
2013-05-05 01:31:00,45.1,44.4,29.85,South,176,0.0,10.0,97,0.00,,,0.00,meteohub,2013-05-05 05:31:00,
2013-05-05 01:36:00,45.1,44.4,29.85,SSW,193,0.0,10.0,97,0.00,,,0.00,meteohub,2013-05-05 05:36:00,
2013-05-05 01:41:00,45.1,44.4,29.84,South,181,0.0,1.0,97,0.00,,,0.00,meteohub,2013-05-05 05:41:00,
2013-05-05 01:46:00,45.0,44.2,29.84,SSW,196,0.0,1.0,97,0.00,,,0.00,meteohub,2013-05-05 05:46:00,
2013-05-05 01:51:00,45.0,44.2,29.83,North,349,0.0,1.0,97,0.00,,,0.00,meteohub,2013-05-05 05:51:00,
2013-05-05 01:56:00,44.8,44.1,29.84,ESE,108,0.0,1.0,97,0.00,,,0.00,meteohub,2013-05-05 05:56:00,
2013-05-05 02:01:00,44.4,43.7,29.83,South,174,0.0,1.0,97,0.00,,,0.00,meteohub,2013-05-05 06:01:00,
2013-05-05 02:06:00,44.4,43.7,29.83,South,185,0.0,1.0,97,0.00,,,0.00,meteohub,2013-05-05 06:06:00,
2013-05-05 02:11:00,44.2,43.5,29.82,South,189,0.0,1.0,97,0.00,,,0.00,meteohub,2013-05-05 06:11:00,
2013-05-05 02:16:00,44.2,43.5,29.81,South,191,0.0,1.0,97,0.00,,,0.00,meteohub,2013-05-05 06:16:00,
2013-05-05 02:22:00,44.2,43.5,29.81,South,178,0.0,1.0,97,0.00,,,0.00,meteohub,2013-05-05 06:22:00,
2013-05-05 02:27:00,44.6,43.9,29.81,South,186,0.0,1.0,97,0.00,,,0.00,meteohub,2013-05-05 06:27:00,
2013-05-05 02:32:00,44.8,44.1,29.81,South,188,1.0,1.0,97,0.00,,,0.00,meteohub,2013-05-05 06:32:00,
2013-05-05 02:37:00,44.8,44.1,29.81,South,172,0.0,1.0,97,0.00,,,0.00,meteohub,2013-05-05 06:37:00,
2013-05-05 02:42:00,44.8,44.1,29.81,SW,223,0.0,10.0,97,0.00,,,0.00,meteohub,2013-05-05 06:42:00,
2013-05-05 02:47:00,44.8,44.1,29.81,South,185,0.0,10.0,97,0.00,,,0.00,meteohub,2013-05-05 06:47:00,
2013-05-05 02:52:00,45.0,44.2,29.81,South,188,0.0,10.0,97,0.00,,,0.00,meteohub,2013-05-05 06:52:00,
2013-05-05 02:57:00,44.8,44.1,29.81,South,172,0.0,3.0,97,0.00,,,0.00,meteohub,2013-05-05 06:57:00,
2013-05-05 03:02:00,45.0,44.2,29.81,SSE,166,0.0,2.0,97,0.00,,,0.00,meteohub,2013-05-05 07:02:00,
2013-05-05 03:07:00,45.0,44.2,29.81,SSW,210,0.0,10.0,97,0.00,,,0.00,meteohub,2013-05-05 07:07:00,
2013-05-05 03:12:00,44.8,44.1,29.81,South,185,1.0,10.0,97,0.00,,,0.00,meteohub,2013-05-05 07:12:00,
2013-05-05 03:17:00,44.6,43.9,29.81,South,177,0.0,29.0,97,0.00,,,0.00,meteohub,2013-05-05 07:17:00,
2013-05-05 03:22:00,44.6,43.9,29.81,South,179,0.0,29.0,97,0.00,,,0.00,meteohub,2013-05-05 07:22:00,
2013-05-05 03:27:00,44.4,43.7,29.79,South,183,0.0,29.0,97,0.00,,,0.00,meteohub,2013-05-05 07:27:00,
2013-05-05 03:32:00,44.4,43.7,29.78,South,171,0.0,2.0,97,0.00,,,0.00,meteohub,2013-05-05 07:32:00,
2013-05-05 03:37:00,44.4,43.7,29.79,South,187,0.0,1.0,97,0.00,,,0.00,meteohub,2013-05-05 07:37:00,
2013-05-05 03:42:00,44.2,43.5,29.81,South,177,0.0,1.0,97,0.00,,,0.00,meteohub,2013-05-05 07:42:00,
2013-05-05 03:47:00,44.4,43.7,29.80,South,180,0.0,14.0,97,0.00,,,0.00,meteohub,2013-05-05 07:47:00,
2013-05-05 03:52:00,44.2,43.5,29.79,South,179,0.0,16.0,97,0.00,,,0.00,meteohub,2013-05-05 07:52:00,
2013-05-05 03:57:00,44.2,43.5,29.79,South,173,10.0,16.0,97,0.00,,,0.00,meteohub,2013-05-05 07:57:00,
2013-05-05 04:02:00,44.2,43.5,29.80,SSE,164,0.0,16.0,97,0.00,,,0.00,meteohub,2013-05-05 08:02:00,
2013-05-05 04:07:00,44.2,43.5,29.79,South,170,0.0,10.0,97,0.00,,,0.00,meteohub,2013-05-05 08:07:00,
2013-05-05 04:12:00,44.2,43.5,29.79,South,185,0.0,16.0,97,0.00,,,0.00,meteohub,2013-05-05 08:12:00,
2013-05-05 04:17:00,44.2,43.5,29.78,South,175,0.0,16.0,97,0.00,,,0.00,meteohub,2013-05-05 08:17:00,
2013-05-05 04:22:00,44.2,43.5,29.78,South,177,0.0,10.0,97,0.00,,,0.00,meteohub,2013-05-05 08:22:00,
2013-05-05 04:27:00,44.4,43.7,29.79,South,182,0.0,13.0,97,0.00,,,0.00,meteohub,2013-05-05 08:27:00,
2013-05-05 04:32:00,44.4,43.7,29.78,South,183,0.0,13.0,97,0.00,,,0.00,meteohub,2013-05-05 08:32:00,
2013-05-05 04:37:00,44.4,43.7,29.78,SSE,163,1.0,13.0,97,0.00,,,0.00,meteohub,2013-05-05 08:37:00,
2013-05-05 04:42:00,44.6,43.9,29.78,South,184,0.0,1.0,97,0.00,,,0.00,meteohub,2013-05-05 08:42:00,
2013-05-05 04:47:00,44.8,44.1,29.77,East,100,0.0,1.0,97,0.00,,,0.00,meteohub,2013-05-05 08:47:00,
2013-05-05 04:52:00,45.0,44.2,29.78,South,176,0.0,13.0,97,0.00,,,0.00,meteohub,2013-05-05 08:52:00,
2013-05-05 04:57:00,45.0,44.2,29.76,South,188,0.0,15.0,97,0.00,,,0.00,meteohub,2013-05-05 08:57:00,
2013-05-05 05:02:00,45.0,44.2,29.77,South,186,1.0,15.0,97,0.00,,,0.00,meteohub,2013-05-05 09:02:00,
2013-05-05 05:07:00,45.0,44.2,29.77,South,175,0.0,3.0,97,0.00,,,0.00,meteohub,2013-05-05 09:07:00,
2013-05-05 05:12:00,45.0,44.2,29.76,South,177,0.0,1.0,97,0.00,,,0.00,meteohub,2013-05-05 09:12:00,
2013-05-05 05:17:00,45.0,44.2,29.76,South,186,0.0,1.0,97,0.00,,,0.00,meteohub,2013-05-05 09:17:00,
2013-05-05 05:22:00,45.0,44.2,29.76,South,183,1.0,1.0,97,0.00,,,0.00,meteohub,2013-05-05 09:22:00,
2013-05-05 05:27:00,45.1,44.4,29.76,South,171,0.0,1.0,97,0.00,,,0.00,meteohub,2013-05-05 09:27:00,
2013-05-05 05:32:00,45.1,44.4,29.77,SSE,168,1.0,1.0,97,0.00,,,0.00,meteohub,2013-05-05 09:32:00,
2013-05-05 05:37:00,45.0,44.2,29.77,SSE,162,0.0,14.0,97,0.00,,,0.00,meteohub,2013-05-05 09:37:00,
2013-05-05 05:42:00,44.8,44.1,29.76,SSE,158,1.0,14.0,97,0.00,,,0.00,meteohub,2013-05-05 09:42:00,
2013-05-05 05:47:00,44.6,43.9,29.75,South,190,0.0,14.0,97,0.00,,,0.00,meteohub,2013-05-05 09:47:00,
2013-05-05 05:52:00,44.6,43.9,29.75,South,173,0.0,14.0,97,0.00,,,0.00,meteohub,2013-05-05 09:52:00,
2013-05-05 05:57:00,44.6,43.9,29.75,South,189,1.0,18.0,97,0.00,,,0.00,meteohub,2013-05-05 09:57:00,
2013-05-05 06:02:00,44.6,43.9,29.76,South,176,0.0,18.0,97,0.00,,,0.00,meteohub,2013-05-05 10:02:00,
2013-05-05 06:07:00,44.6,43.9,29.75,South,182,0.0,18.0,97,0.00,,,0.00,meteohub,2013-05-05 10:07:00,
2013-05-05 06:12:00,44.4,43.7,29.74,South,185,0.0,18.0,97,0.00,,,0.00,meteohub,2013-05-05 10:12:00,
2013-05-05 06:17:00,44.4,43.7,29.74,South,186,0.0,13.0,97,0.00,,,0.00,meteohub,2013-05-05 10:17:00,
2013-05-05 06:22:00,44.6,43.9,29.75,South,175,0.0,14.0,97,0.00,,,0.00,meteohub,2013-05-05 10:22:00,
2013-05-05 06:27:00,44.6,43.9,29.76,South,173,1.0,14.0,97,0.00,,,0.00,meteohub,2013-05-05 10:27:00,
2013-05-05 06:32:00,44.4,43.7,29.76,South,189,0.0,14.0,97,0.00,,,0.00,meteohub,2013-05-05 10:32:00,
2013-05-05 06:37:00,44.4,43.7,29.75,South,179,0.0,13.0,97,0.00,,,0.00,meteohub,2013-05-05 10:37:00,
2013-05-05 06:42:00,44.6,43.9,29.75,South,183,0.0,13.0,97,0.00,,,0.00,meteohub,2013-05-05 10:42:00,
2013-05-05 06:47:00,44.8,44.1,29.75,SSW,192,0.0,7.0,97,0.00,,,0.00,meteohub,2013-05-05 10:47:00,
2013-05-05 06:52:00,44.6,43.9,29.75,South,186,1.0,18.0,97,0.00,,,0.00,meteohub,2013-05-05 10:52:00,
2013-05-05 06:57:00,44.8,44.1,29.76,SSE,164,0.0,18.0,97,0.00,,,0.00,meteohub,2013-05-05 10:57:00,
2013-05-05 07:02:00,45.0,44.2,29.77,South,179,0.0,17.0,97,0.00,,,0.00,meteohub,2013-05-05 11:02:00,
2013-05-05 07:07:00,44.8,44.1,29.75,South,183,0.0,21.0,97,0.00,,,0.00,meteohub,2013-05-05 11:07:00,
2013-05-05 07:12:00,44.8,44.1,29.75,SSW,204,0.0,21.0,97,0.00,,,0.00,meteohub,2013-05-05 11:12:00,
2013-05-05 07:17:00,44.8,44.1,29.76,South,183,0.0,8.0,97,0.00,,,0.00,meteohub,2013-05-05 11:17:00,
2013-05-05 07:22:00,44.8,44.1,29.75,South,185,0.0,23.0,97,0.00,,,0.00,meteohub,2013-05-05 11:22:00,
2013-05-05 07:27:00,44.8,44.1,29.74,South,182,0.0,23.0,97,0.00,,,0.00,meteohub,2013-05-05 11:27:00,
2013-05-05 07:32:00,45.0,44.2,29.75,South,186,0.0,23.0,97,0.00,,,0.00,meteohub,2013-05-05 11:32:00,
2013-05-05 07:37:00,45.0,44.2,29.74,South,179,1.0,21.0,97,0.00,,,0.00,meteohub,2013-05-05 11:37:00,
2013-05-05 07:42:00,45.1,44.4,29.75,South,189,0.0,21.0,97,0.00,,,0.00,meteohub,2013-05-05 11:42:00,
2013-05-05 07:47:00,45.3,44.6,29.76,South,179,0.0,18.0,97,0.00,,,0.00,meteohub,2013-05-05 11:47:00,
2013-05-05 07:52:00,45.1,44.4,29.77,South,185,3.0,18.0,97,0.00,,,0.00,meteohub,2013-05-05 11:52:00,
2013-05-05 07:57:00,45.1,44.4,29.75,South,186,0.0,19.0,97,0.00,,,0.00,meteohub,2013-05-05 11:57:00,
2013-05-05 08:02:00,45.0,43.9,29.76,South,182,0.0,19.0,96,0.00,,,0.00,meteohub,2013-05-05 12:02:00,
2013-05-05 08:07:00,44.8,44.1,29.76,South,189,0.0,12.0,97,0.00,,,0.00,meteohub,2013-05-05 12:07:00,
2013-05-05 08:12:00,44.8,44.1,29.76,South,177,1.0,6.0,97,0.00,,,0.00,meteohub,2013-05-05 12:12:00,
2013-05-05 08:17:00,44.8,44.1,29.76,South,187,1.0,6.0,97,0.00,,,0.00,meteohub,2013-05-05 12:17:00,
2013-05-05 08:22:00,44.8,44.1,29.75,South,184,0.0,19.0,97,0.00,,,0.00,meteohub,2013-05-05 12:22:00,
2013-05-05 08:27:00,44.8,44.1,29.76,South,189,0.0,19.0,97,0.00,,,0.00,meteohub,2013-05-05 12:27:00,
2013-05-05 08:32:00,44.8,44.1,29.76,SSE,159,0.0,13.0,97,0.00,,,0.00,meteohub,2013-05-05 12:32:00,
2013-05-05 08:37:00,44.6,43.9,29.76,SSE,164,0.0,16.0,97,0.00,,,0.00,meteohub,2013-05-05 12:37:00,
2013-05-05 08:42:00,44.4,43.3,29.75,South,178,8.0,16.0,96,0.00,,,0.00,meteohub,2013-05-05 12:42:00,
2013-05-05 08:47:00,44.4,43.3,29.76,South,187,1.0,16.0,96,0.00,,,0.00,meteohub,2013-05-05 12:47:00,
2013-05-05 08:52:00,44.4,43.3,29.75,South,187,1.0,15.0,96,0.00,,,0.00,meteohub,2013-05-05 12:52:00,
2013-05-05 08:57:00,44.2,43.2,29.76,South,187,0.0,14.0,96,0.00,,,0.00,meteohub,2013-05-05 12:57:00,
2013-05-05 09:02:00,44.2,43.2,29.76,South,183,0.0,20.0,96,0.00,,,0.00,meteohub,2013-05-05 13:02:00,
2013-05-05 09:07:00,44.1,43.0,29.77,South,183,1.0,20.0,96,0.00,,,0.00,meteohub,2013-05-05 13:07:00,
2013-05-05 09:12:00,44.1,43.3,29.77,South,179,0.0,17.0,97,0.00,,,0.00,meteohub,2013-05-05 13:12:00,
2013-05-05 09:17:00,43.9,43.2,29.77,SSE,158,0.0,17.0,97,0.00,,,0.00,meteohub,2013-05-05 13:17:00,
2013-05-05 09:22:00,44.1,43.0,29.77,South,189,0.0,30.0,96,0.00,,,0.00,meteohub,2013-05-05 13:22:00,
2013-05-05 09:27:00,44.1,43.3,29.78,South,180,0.0,30.0,97,0.00,,,0.00,meteohub,2013-05-05 13:27:00,
2013-05-05 09:32:00,44.1,43.3,29.80,South,180,0.0,30.0,97,0.00,,,0.00,meteohub,2013-05-05 13:32:00,
2013-05-05 09:37:00,43.9,42.8,29.79,South,183,1.0,19.0,96,0.00,,,0.00,meteohub,2013-05-05 13:37:00,
2013-05-05 09:42:00,43.7,42.6,29.78,SSW,194,0.0,13.0,96,0.00,,,0.00,meteohub,2013-05-05 13:42:00,
2013-05-05 09:47:00,43.5,42.8,29.78,South,183,0.0,13.0,97,0.01,,,0.01,meteohub,2013-05-05 13:47:00,
2013-05-05 09:52:00,43.3,42.3,29.78,SSW,204,0.0,6.0,96,0.01,,,0.01,meteohub,2013-05-05 13:52:00,
2013-05-05 09:57:00,43.3,42.3,29.78,SW,222,0.0,5.0,96,0.01,,,0.01,meteohub,2013-05-05 13:57:00,
2013-05-05 10:02:00,43.3,42.3,29.78,SSW,204,0.0,5.0,96,0.01,,,0.01,meteohub,2013-05-05 14:02:00,
2013-05-05 10:07:00,43.2,42.1,29.78,South,183,1.0,1.0,96,0.01,,,0.01,meteohub,2013-05-05 14:07:00,
2013-05-05 10:12:00,43.2,42.1,29.78,South,187,0.0,7.0,96,0.01,,,0.01,meteohub,2013-05-05 14:12:00,
2013-05-05 10:17:00,43.2,42.4,29.77,South,186,0.0,7.0,97,0.01,,,0.01,meteohub,2013-05-05 14:17:00,
2013-05-05 10:22:00,43.5,42.8,29.76,South,170,0.0,12.0,97,0.01,,,0.01,meteohub,2013-05-05 14:22:00,
2013-05-05 10:27:00,43.5,42.8,29.77,South,186,0.0,12.0,97,0.01,,,0.01,meteohub,2013-05-05 14:27:00,
2013-05-05 10:32:00,43.7,43.0,29.76,NW,325,0.0,12.0,97,0.01,,,0.01,meteohub,2013-05-05 14:32:00,
2013-05-05 10:37:00,43.5,42.8,29.77,SSW,194,0.0,12.0,97,0.02,,,0.02,meteohub,2013-05-05 14:37:00,
2013-05-05 10:42:00,43.7,43.0,29.78,South,183,0.0,1.0,97,0.02,,,0.02,meteohub,2013-05-05 14:42:00,
2013-05-05 10:47:00,43.5,42.8,29.78,South,179,0.0,1.0,97,0.02,,,0.03,meteohub,2013-05-05 14:47:00,
2013-05-05 10:52:00,43.3,42.3,29.77,SSE,162,0.0,12.0,96,0.03,,,0.04,meteohub,2013-05-05 14:52:00,
2013-05-05 10:57:00,43.2,42.1,29.78,South,175,0.0,26.0,96,0.03,,,0.04,meteohub,2013-05-05 14:57:00,
2013-05-05 11:03:00,43.2,42.4,29.78,SSE,166,1.0,26.0,97,0.03,,,0.04,meteohub,2013-05-05 15:03:00,
2013-05-05 11:08:00,43.2,42.4,29.78,SSE,166,1.0,26.0,97,0.04,,,0.05,meteohub,2013-05-05 15:08:00,
2013-05-05 11:13:00,43.3,42.6,29.78,ESE,120,4.0,16.0,97,0.04,,,0.05,meteohub,2013-05-05 15:13:00,
2013-05-05 11:18:00,43.2,42.4,29.78,South,183,0.0,16.0,97,0.04,,,0.05,meteohub,2013-05-05 15:18:00,
2013-05-05 11:23:00,43.2,42.4,29.78,South,181,0.0,15.0,97,0.04,,,0.05,meteohub,2013-05-05 15:23:00,
2013-05-05 11:28:00,43.2,42.4,29.79,South,184,20.0,20.0,97,0.05,,,0.06,meteohub,2013-05-05 15:28:00,
2013-05-05 11:33:00,43.3,42.6,29.78,SSE,165,0.0,20.0,97,0.05,,,0.06,meteohub,2013-05-05 15:33:00,
2013-05-05 11:38:00,43.7,43.0,29.78,South,185,0.0,20.0,97,0.04,,,0.06,meteohub,2013-05-05 15:38:00,
2013-05-05 11:43:00,43.9,43.2,29.78,South,181,0.0,20.0,97,0.04,,,0.07,meteohub,2013-05-05 15:43:00,
2013-05-05 11:48:00,44.1,43.3,29.78,South,183,0.0,13.0,97,0.03,,,0.07,meteohub,2013-05-05 15:48:00,
2013-05-05 11:53:00,44.1,43.3,29.78,South,182,0.0,19.0,97,0.03,,,0.07,meteohub,2013-05-05 15:53:00,
2013-05-05 11:58:00,44.2,43.5,29.78,South,184,0.0,19.0,97,0.03,,,0.07,meteohub,2013-05-05 15:58:00,
2013-05-05 12:03:00,44.2,43.5,29.78,South,191,0.0,19.0,97,0.02,,,0.07,meteohub,2013-05-05 16:03:00,
2013-05-05 12:08:00,44.4,43.7,29.78,South,185,1.0,19.0,97,0.02,,,0.07,meteohub,2013-05-05 16:08:00,
2013-05-05 12:13:00,44.4,43.7,29.78,South,172,0.0,19.0,97,0.03,,,0.08,meteohub,2013-05-05 16:13:00,
2013-05-05 12:18:00,44.8,44.1,29.78,South,189,0.0,19.0,97,0.03,,,0.08,meteohub,2013-05-05 16:18:00,
2013-05-05 12:23:00,44.6,43.9,29.78,South,183,0.0,7.0,97,0.02,,,0.08,meteohub,2013-05-05 16:23:00,
2013-05-05 12:28:00,44.6,43.9,29.78,SE,142,0.0,16.0,97,0.02,,,0.08,meteohub,2013-05-05 16:28:00,
2013-05-05 12:33:00,44.8,44.1,29.78,South,184,0.0,16.0,97,0.02,,,0.08,meteohub,2013-05-05 16:33:00,
2013-05-05 12:38:00,44.6,43.9,29.78,South,183,0.0,16.0,97,0.02,,,0.08,meteohub,2013-05-05 16:38:00,
2013-05-05 12:43:00,44.8,44.1,29.78,SE,139,0.0,15.0,97,0.01,,,0.08,meteohub,2013-05-05 16:43:00,
2013-05-05 12:48:00,45.0,44.2,29.78,South,180,0.0,15.0,97,0.01,,,0.08,meteohub,2013-05-05 16:48:00,
2013-05-05 12:53:00,45.0,44.2,29.78,South,185,0.0,15.0,97,0.02,,,0.09,meteohub,2013-05-05 16:53:00,
2013-05-05 12:58:00,45.0,44.2,29.78,South,180,0.0,15.0,97,0.02,,,0.09,meteohub,2013-05-05 16:58:00,
2013-05-05 13:03:00,45.0,44.2,29.78,South,172,0.0,5.0,97,0.02,,,0.09,meteohub,2013-05-05 17:03:00,
2013-05-05 13:08:00,45.1,44.4,29.77,South,171,0.0,13.0,97,0.01,,,0.09,meteohub,2013-05-05 17:08:00,
2013-05-05 13:13:00,45.3,44.6,29.77,SSE,162,0.0,13.0,97,0.02,,,0.10,meteohub,2013-05-05 17:13:00,
2013-05-05 13:18:00,45.7,45.0,29.77,South,183,0.0,16.0,97,0.02,,,0.10,meteohub,2013-05-05 17:18:00,
2013-05-05 13:23:00,45.9,45.1,29.77,SSE,166,0.0,22.0,97,0.02,,,0.10,meteohub,2013-05-05 17:23:00,
2013-05-05 13:28:00,45.9,45.1,29.77,South,172,0.0,22.0,97,0.02,,,0.10,meteohub,2013-05-05 17:28:00,
2013-05-05 13:33:00,45.9,45.1,29.77,South,189,0.0,14.0,97,0.02,,,0.10,meteohub,2013-05-05 17:33:00,
2013-05-05 13:38:00,45.7,45.0,29.77,South,173,0.0,14.0,97,0.02,,,0.10,meteohub,2013-05-05 17:38:00,
2013-05-05 13:44:00,45.5,44.8,29.77,ESE,120,0.0,17.0,97,0.02,,,0.10,meteohub,2013-05-05 17:44:00,
2013-05-05 13:49:00,45.3,44.6,29.77,South,178,0.0,17.0,97,0.01,,,0.10,meteohub,2013-05-05 17:49:00,
2013-05-05 13:54:00,45.3,44.6,29.77,South,185,0.0,17.0,97,0.01,,,0.10,meteohub,2013-05-05 17:54:00,
2013-05-05 13:58:00,45.3,44.6,29.76,South,171,0.0,13.0,97,0.01,,,0.10,meteohub,2013-05-05 17:58:00,
2013-05-05 14:04:00,45.1,44.4,29.76,South,187,0.0,11.0,97,0.01,,,0.10,meteohub,2013-05-05 18:04:00,
2013-05-05 14:08:00,45.3,44.6,29.75,South,183,1.0,13.0,97,0.02,,,0.11,meteohub,2013-05-05 18:08:00,
2013-05-05 14:13:00,45.5,44.8,29.75,South,185,0.0,17.0,97,0.01,,,0.11,meteohub,2013-05-05 18:13:00,
2013-05-05 14:18:00,45.3,44.6,29.75,SSE,156,0.0,17.0,97,0.01,,,0.11,meteohub,2013-05-05 18:18:00,
2013-05-05 14:23:00,45.1,44.4,29.75,South,180,0.0,21.0,97,0.01,,,0.11,meteohub,2013-05-05 18:23:00,
2013-05-05 14:28:00,45.1,44.4,29.75,South,181,0.0,21.0,97,0.01,,,0.11,meteohub,2013-05-05 18:28:00,
2013-05-05 14:34:00,45.1,44.4,29.75,ESE,120,11.0,21.0,97,0.01,,,0.11,meteohub,2013-05-05 18:34:00,
2013-05-05 14:39:00,45.1,44.4,29.75,South,185,0.0,14.0,97,0.01,,,0.11,meteohub,2013-05-05 18:39:00,
2013-05-05 14:44:00,45.0,44.2,29.75,South,179,0.0,14.0,97,0.01,,,0.11,meteohub,2013-05-05 18:44:00,
2013-05-05 14:49:00,45.0,44.2,29.75,South,185,0.0,14.0,97,0.01,,,0.11,meteohub,2013-05-05 18:49:00,
2013-05-05 14:54:00,45.0,44.2,29.74,SSE,158,2.0,15.0,97,0.01,,,0.11,meteohub,2013-05-05 18:54:00,
2013-05-05 14:59:00,45.0,44.2,29.75,SSE,165,0.0,15.0,97,0.01,,,0.11,meteohub,2013-05-05 18:59:00,
2013-05-05 15:04:00,44.8,44.1,29.75,South,175,3.0,20.0,97,0.00,,,0.11,meteohub,2013-05-05 19:04:00,
2013-05-05 15:09:00,44.8,44.1,29.75,South,173,0.0,20.0,97,0.00,,,0.11,meteohub,2013-05-05 19:09:00,
2013-05-05 15:14:00,44.8,44.1,29.75,SSE,156,0.0,20.0,97,0.01,,,0.12,meteohub,2013-05-05 19:14:00,
2013-05-05 15:19:00,44.8,44.1,29.75,South,181,0.0,17.0,97,0.01,,,0.12,meteohub,2013-05-05 19:19:00,
2013-05-05 15:24:00,45.0,44.2,29.75,South,181,0.0,13.0,97,0.01,,,0.12,meteohub,2013-05-05 19:24:00,
2013-05-05 15:29:00,45.1,44.4,29.76,South,181,0.0,11.0,97,0.01,,,0.12,meteohub,2013-05-05 19:29:00,
2013-05-05 15:34:00,45.1,44.4,29.76,South,180,0.0,11.0,97,0.03,,,0.14,meteohub,2013-05-05 19:34:00,
2013-05-05 15:39:00,45.3,44.6,29.76,South,184,0.0,1.0,97,0.03,,,0.14,meteohub,2013-05-05 19:39:00,
2013-05-05 15:44:00,45.5,44.8,29.75,South,183,0.0,1.0,97,0.03,,,0.14,meteohub,2013-05-05 19:44:00,
2013-05-05 15:49:00,45.7,45.0,29.75,South,183,0.0,1.0,97,0.05,,,0.16,meteohub,2013-05-05 19:49:00,
2013-05-05 15:54:00,45.7,45.0,29.75,South,188,0.0,1.0,97,0.06,,,0.17,meteohub,2013-05-05 19:54:00,
2013-05-05 15:59:00,45.9,45.1,29.75,South,188,0.0,1.0,97,0.06,,,0.17,meteohub,2013-05-05 19:59:00,
2013-05-05 16:04:00,45.9,45.1,29.75,South,188,0.0,1.0,97,0.07,,,0.18,meteohub,2013-05-05 20:04:00,
2013-05-05 16:09:00,46.0,45.3,29.75,South,188,0.0,1.0,97,0.06,,,0.18,meteohub,2013-05-05 20:09:00,
2013-05-05 16:14:00,46.2,45.7,29.75,South,188,1.0,0.0,98,0.06,,,0.18,meteohub,2013-05-05 20:14:00,
2013-05-05 16:19:00,46.0,45.3,29.75,South,183,0.0,0.0,97,0.06,,,0.18,meteohub,2013-05-05 20:19:00,
2013-05-05 16:24:00,46.0,45.3,29.75,South,183,0.0,2.0,97,0.06,,,0.18,meteohub,2013-05-05 20:24:00,
2013-05-05 16:29:00,46.2,45.7,29.74,South,183,0.0,2.0,98,0.06,,,0.18,meteohub,2013-05-05 20:29:00,
2013-05-05 16:34:00,46.0,45.5,29.74,South,183,0.0,1.0,98,0.04,,,0.18,meteohub,2013-05-05 20:34:00,
2013-05-05 16:39:00,45.9,45.1,29.74,SSW,196,0.0,1.0,97,0.04,,,0.18,meteohub,2013-05-05 20:39:00,
2013-05-05 16:44:00,45.9,45.1,29.74,South,184,0.0,1.0,97,0.03,,,0.18,meteohub,2013-05-05 20:44:00,
2013-05-05 16:49:00,45.9,45.1,29.74,South,183,0.0,1.0,97,0.02,,,0.18,meteohub,2013-05-05 20:49:00,
2013-05-05 16:54:00,45.7,45.0,29.74,South,183,0.0,1.0,97,0.01,,,0.18,meteohub,2013-05-05 20:54:00,
2013-05-05 16:59:00,45.7,45.0,29.74,South,183,0.0,1.0,97,0.01,,,0.18,meteohub,2013-05-05 20:59:00,
2013-05-05 17:04:00,45.7,45.0,29.74,South,187,0.0,1.0,97,0.00,,,0.18,meteohub,2013-05-05 21:04:00,
2013-05-05 17:09:00,45.7,45.0,29.74,South,187,0.0,1.0,97,0.00,,,0.18,meteohub,2013-05-05 21:09:00,
2013-05-05 17:14:00,45.7,45.0,29.74,South,187,0.0,1.0,97,0.00,,,0.18,meteohub,2013-05-05 21:14:00,
2013-05-05 17:19:00,45.7,45.0,29.74,South,187,0.0,1.0,97,0.01,,,0.19,meteohub,2013-05-05 21:19:00,
2013-05-05 17:24:00,45.7,45.0,29.74,South,185,0.0,1.0,97,0.01,,,0.19,meteohub,2013-05-05 21:24:00,
2013-05-05 17:29:00,45.9,45.1,29.74,South,170,0.0,1.0,97,0.01,,,0.19,meteohub,2013-05-05 21:29:00,
2013-05-05 17:34:00,45.9,45.1,29.74,South,170,0.0,1.0,97,0.01,,,0.19,meteohub,2013-05-05 21:34:00,
2013-05-05 17:39:00,45.9,45.1,29.74,South,180,0.0,1.0,97,0.01,,,0.19,meteohub,2013-05-05 21:39:00,
2013-05-05 17:44:00,45.9,45.1,29.74,South,181,0.0,1.0,97,0.01,,,0.19,meteohub,2013-05-05 21:44:00,
2013-05-05 17:49:00,46.0,45.3,29.74,South,180,0.0,1.0,97,0.01,,,0.19,meteohub,2013-05-05 21:49:00,
2013-05-05 17:54:00,45.9,45.1,29.74,South,187,0.0,1.0,97,0.01,,,0.19,meteohub,2013-05-05 21:54:00,
2013-05-05 17:59:00,45.9,45.1,29.73,South,187,0.0,1.0,97,0.01,,,0.19,meteohub,2013-05-05 21:59:00,
2013-05-05 18:04:00,45.7,45.0,29.74,South,186,0.0,1.0,97,0.01,,,0.19,meteohub,2013-05-05 22:04:00,
2013-05-05 18:09:00,45.9,45.1,29.74,SSE,168,0.0,1.0,97,0.01,,,0.19,meteohub,2013-05-05 22:09:00,
2013-05-05 18:14:00,46.0,45.3,29.74,South,181,0.0,1.0,97,0.00,,,0.19,meteohub,2013-05-05 22:14:00,
2013-05-05 18:19:00,46.2,45.5,29.73,South,185,0.0,1.0,97,0.00,,,0.19,meteohub,2013-05-05 22:19:00,
2013-05-05 18:24:00,46.4,45.9,29.73,South,186,0.0,1.0,98,0.00,,,0.19,meteohub,2013-05-05 22:24:00,
2013-05-05 18:29:00,46.6,45.9,29.73,SSE,168,1.0,1.0,97,0.00,,,0.19,meteohub,2013-05-05 22:29:00,
2013-05-05 18:34:00,46.6,45.9,29.73,South,177,0.0,1.0,97,0.01,,,0.20,meteohub,2013-05-05 22:34:00,
2013-05-05 18:39:00,46.6,45.9,29.73,South,177,0.0,11.0,97,0.01,,,0.20,meteohub,2013-05-05 22:39:00,
2013-05-05 18:44:00,46.6,45.9,29.73,South,184,1.0,11.0,97,0.01,,,0.20,meteohub,2013-05-05 22:44:00,
2013-05-05 18:49:00,46.4,45.7,29.73,South,187,0.0,11.0,97,0.01,,,0.20,meteohub,2013-05-05 22:49:00,
2013-05-05 18:54:00,46.0,45.3,29.73,South,187,0.0,1.0,97,0.01,,,0.20,meteohub,2013-05-05 22:54:00,
2013-05-05 18:59:00,45.9,45.1,29.73,South,191,0.0,1.0,97,0.01,,,0.20,meteohub,2013-05-05 22:59:00,
2013-05-05 19:04:00,45.9,45.1,29.73,South,186,0.0,1.0,97,0.01,,,0.20,meteohub,2013-05-05 23:04:00,
2013-05-05 19:09:00,46.0,45.3,29.73,South,185,1.0,1.0,97,0.01,,,0.20,meteohub,2013-05-05 23:09:00,
2013-05-05 19:14:00,46.2,45.7,29.73,South,179,0.0,1.0,98,0.01,,,0.20,meteohub,2013-05-05 23:14:00,
2013-05-05 19:19:00,46.4,45.9,29.73,South,181,0.0,1.0,98,0.01,,,0.20,meteohub,2013-05-05 23:19:00,
2013-05-05 19:25:00,46.6,46.0,29.73,South,186,0.0,1.0,98,0.01,,,0.20,meteohub,2013-05-05 23:25:00,
2013-05-05 19:30:00,46.6,46.0,29.73,South,182,1.0,1.0,98,0.00,,,0.20,meteohub,2013-05-05 23:30:00,
2013-05-05 19:35:00,46.6,46.0,29.73,South,185,0.0,1.0,98,0.00,,,0.20,meteohub,2013-05-05 23:35:00,
2013-05-05 19:40:00,46.6,46.0,29.73,South,185,0.0,1.0,98,0.00,,,0.20,meteohub,2013-05-05 23:40:00,
2013-05-05 19:45:00,46.2,45.7,29.74,South,185,1.0,1.0,98,0.00,,,0.20,meteohub,2013-05-05 23:45:00,
2013-05-05 19:50:00,46.2,45.7,29.74,South,189,0.0,1.0,98,0.00,,,0.20,meteohub,2013-05-05 23:50:00,
2013-05-05 19:55:00,46.2,45.7,29.74,SE,138,0.0,3.0,98,0.00,,,0.20,meteohub,2013-05-05 23:55:00,
2013-05-05 20:00:00,46.2,45.7,29.74,South,183,0.0,3.0,98,0.00,,,0.20,meteohub,2013-05-06 00:00:00,
2013-05-05 20:05:00,46.2,45.5,29.74,South,187,1.0,3.0,97,0.00,,,0.00,meteohub,2013-05-06 00:05:00,
2013-05-05 20:10:00,46.0,45.3,29.74,South,183,0.0,1.0,97,0.00,,,0.00,meteohub,2013-05-06 00:10:00,
2013-05-05 20:15:00,46.0,45.3,29.74,South,183,0.0,1.0,97,0.00,,,0.00,meteohub,2013-05-06 00:15:00,
2013-05-05 20:20:00,45.9,45.3,29.74,South,183,1.0,1.0,98,0.00,,,0.00,meteohub,2013-05-06 00:20:00,
2013-05-05 20:25:00,45.7,45.1,29.74,South,189,0.0,1.0,98,0.00,,,0.00,meteohub,2013-05-06 00:25:00,
2013-05-05 20:30:00,45.5,44.8,29.74,South,190,0.0,1.0,97,0.00,,,0.00,meteohub,2013-05-06 00:30:00,
2013-05-05 20:35:00,45.3,44.6,29.74,South,189,0.0,1.0,97,0.00,,,0.00,meteohub,2013-05-06 00:35:00,
2013-05-05 20:40:00,45.3,44.6,29.74,South,188,1.0,1.0,97,0.00,,,0.00,meteohub,2013-05-06 00:40:00,
2013-05-05 20:45:00,45.3,44.6,29.74,South,183,0.0,1.0,97,0.00,,,0.00,meteohub,2013-05-06 00:45:00,
2013-05-05 20:50:00,45.3,44.6,29.73,South,183,0.0,1.0,97,0.00,,,0.00,meteohub,2013-05-06 00:50:00,
2013-05-05 20:55:00,45.1,44.6,29.73,South,184,0.0,1.0,98,0.00,,,0.00,meteohub,2013-05-06 00:55:00,
2013-05-05 21:00:00,45.1,44.6,29.73,South,184,0.0,1.0,98,0.00,,,0.00,meteohub,2013-05-06 01:00:00,
2013-05-05 21:05:00,45.1,44.6,29.73,South,190,0.0,1.0,98,0.00,,,0.00,meteohub,2013-05-06 01:05:00,
2013-05-05 21:10:00,45.1,44.6,29.73,South,185,0.0,1.0,98,0.00,,,0.00,meteohub,2013-05-06 01:10:00,
2013-05-05 21:15:00,45.1,44.6,29.73,South,185,0.0,1.0,98,0.00,,,0.00,meteohub,2013-05-06 01:15:00,
2013-05-05 21:20:00,45.1,44.6,29.73,South,185,1.0,1.0,98,0.00,,,0.00,meteohub,2013-05-06 01:20:00,
2013-05-05 21:25:00,45.1,44.6,29.73,South,185,0.0,1.0,98,0.00,,,0.00,meteohub,2013-05-06 01:25:00,
2013-05-05 21:30:00,45.3,44.8,29.74,South,185,0.0,1.0,98,0.00,,,0.00,meteohub,2013-05-06 01:30:00,
2013-05-05 21:35:00,45.3,44.8,29.74,South,185,0.0,1.0,98,0.00,,,0.00,meteohub,2013-05-06 01:35:00,
2013-05-05 21:40:00,45.3,44.8,29.74,South,185,1.0,1.0,98,0.00,,,0.00,meteohub,2013-05-06 01:40:00,
2013-05-05 21:45:00,45.3,44.8,29.74,South,185,0.0,1.0,98,0.00,,,0.00,meteohub,2013-05-06 01:45:00,
2013-05-05 21:50:00,45.3,44.8,29.74,South,185,0.0,1.0,98,0.00,,,0.00,meteohub,2013-05-06 01:50:00,
2013-05-05 21:55:00,45.3,44.8,29.74,South,185,0.0,1.0,98,0.00,,,0.00,meteohub,2013-05-06 01:55:00,
2013-05-05 22:00:00,45.3,44.8,29.74,South,185,0.0,1.0,98,0.00,,,0.00,meteohub,2013-05-06 02:00:00,
2013-05-05 22:05:00,45.3,44.8,29.74,South,183,0.0,1.0,98,0.00,,,0.00,meteohub,2013-05-06 02:05:00,
2013-05-05 22:11:00,45.3,44.8,29.73,South,184,1.0,1.0,98,0.00,,,0.00,meteohub,2013-05-06 02:11:00,
2013-05-05 22:16:00,45.3,44.8,29.73,South,186,0.0,1.0,98,0.00,,,0.00,meteohub,2013-05-06 02:16:00,
2013-05-05 22:21:00,45.3,44.8,29.73,South,184,0.0,1.0,98,0.00,,,0.00,meteohub,2013-05-06 02:21:00,
2013-05-05 22:26:00,45.3,44.8,29.73,South,185,0.0,1.0,98,0.00,,,0.00,meteohub,2013-05-06 02:26:00,
2013-05-05 22:31:00,45.3,44.8,29.73,South,185,0.0,1.0,98,0.00,,,0.00,meteohub,2013-05-06 02:31:00,
2013-05-05 22:36:00,45.3,44.8,29.74,South,185,0.0,1.0,98,0.00,,,0.00,meteohub,2013-05-06 02:36:00,
2013-05-05 22:41:00,45.3,44.8,29.74,South,186,0.0,1.0,98,0.00,,,0.00,meteohub,2013-05-06 02:41:00,
2013-05-05 22:46:00,45.3,44.8,29.74,South,185,0.0,1.0,98,0.00,,,0.00,meteohub,2013-05-06 02:46:00,
2013-05-05 22:51:00,45.1,44.6,29.74,South,184,0.0,1.0,98,0.00,,,0.00,meteohub,2013-05-06 02:51:00,
2013-05-05 22:56:00,45.3,44.8,29.75,South,184,0.0,1.0,98,0.00,,,0.00,meteohub,2013-05-06 02:56:00,
2013-05-05 23:01:00,45.3,44.8,29.75,South,184,0.0,1.0,98,0.00,,,0.00,meteohub,2013-05-06 03:01:00,
2013-05-05 23:06:00,45.3,44.8,29.75,South,185,0.0,1.0,98,0.00,,,0.00,meteohub,2013-05-06 03:06:00,
2013-05-05 23:11:00,45.5,45.0,29.75,South,177,0.0,1.0,98,0.00,,,0.00,meteohub,2013-05-06 03:11:00,
2013-05-05 23:16:00,45.7,45.1,29.74,South,183,0.0,1.0,98,0.00,,,0.00,meteohub,2013-05-06 03:16:00,
2013-05-05 23:21:00,45.5,45.0,29.74,South,182,0.0,1.0,98,0.00,,,0.00,meteohub,2013-05-06 03:21:00,
2013-05-05 23:26:00,45.7,45.1,29.74,South,184,0.0,1.0,98,0.00,,,0.00,meteohub,2013-05-06 03:26:00,
2013-05-05 23:31:00,45.7,45.1,29.74,South,184,0.0,1.0,98,0.00,,,0.00,meteohub,2013-05-06 03:31:00,
2013-05-05 23:36:00,45.7,45.1,29.74,South,185,0.0,1.0,98,0.00,,,0.00,meteohub,2013-05-06 03:36:00,
2013-05-05 23:41:00,45.9,45.3,29.73,South,183,0.0,1.0,98,0.00,,,0.00,meteohub,2013-05-06 03:41:00,
2013-05-05 23:46:00,45.9,45.3,29.73,South,184,1.0,1.0,98,0.00,,,0.00,meteohub,2013-05-06 03:46:00,
2013-05-05 23:51:00,45.9,45.3,29.73,South,184,0.0,1.0,98,0.00,,,0.00,meteohub,2013-05-06 03:51:00,
2013-05-05 23:56:00,46.0,45.5,29.72,South,180,0.0,10.0,98,0.00,,,0.00,meteohub,2013-05-06 03:56:00,